EW4210 Weather Reports


Display with metric or nautical units.
time (UTC)temp
F
wind
direction
speed
MPH
gust
MPH
rain 1hr
in
rain 24hr
in
rain mn
in
humidity
%
barometer
mb
20260906184513 98 85 0.0 3.0 0.00 0.00 0.00 44 1011.0
20260906183005 99 63 2.0 4.0 0.00 0.00 0.00 44 1011.2
20260906181546 100 45 1.0 3.0 0.00 0.00 0.00 45 1011.2
20260906180023 98 89 2.0 4.0 0.00 0.00 0.00 46 1011.4
20260906174555 98 105 1.0 4.0 0.00 0.00 0.00 46 1011.5
20260906173035 97 123 2.0 3.0 0.00 0.00 0.00 46 1011.9
20260906171519 97 33 2.0 4.0 0.00 0.00 0.00 49 1012.2
20260906170053 97 5 1.0 2.0 0.00 0.00 0.00 51 1012.4
20260906164537 96 242 1.0 3.0 0.00 0.00 0.00 54 1012.3
20260906163014 95 251 1.0 2.0 0.00 0.00 0.00 56 1012.6
20260906161549 94 170 0.0 2.0 0.00 0.00 0.00 59 1012.7
20260906160025 93 170 1.0 3.0 0.00 0.00 0.00 63 1012.7
20260906154507 92 277 1.0 2.0 0.00 0.00 0.00 61 1012.7
20260906153041 90 277 0.0 3.0 0.00 0.00 0.00 66 1012.7
20260906151522 88 277 1.0 3.0 0.00 0.00 0.00 66 1012.6
20260906150005 88 277 1.0 3.0 0.00 0.00 0.00 68 1012.5
20260906144540 87 277 0.0 2.0 0.00 0.00 0.00 73 1012.7
20260906143022 85 277 1.0 3.0 0.00 0.00 0.00 74 1012.8
20260906141556 84 277 0.0 3.0 0.00 0.00 0.00 75 1012.8
20260906140046 84 245 0.0 1.0 0.00 0.00 0.00 80 1012.8
20260906134523 83 245 0.0 0.0 0.00 0.00 0.00 80 1012.7
20260906133059 82 245 0.0 1.0 0.00 0.00 0.00 83 1012.6
20260906131540 81 348 0.0 1.0 0.00 0.00 0.00 85 1012.6
20260906130014 79 283 0.0 2.0 0.00 0.00 0.00 88 1012.5
20260906124608 78 151 0.0 0.0 0.00 0.00 0.00 90 1012.4
20260906123039 77 153 0.0 0.0 0.00 0.00 0.00 90 1012.2
20260906121520 77 153 0.0 0.0 0.00 0.00 0.00 89 1012.1
20260906120106 76 153 0.0 0.0 0.00 0.00 0.00 89 1012.1
20260906114636 76 153 0.0 0.0 0.00 0.00 0.00 88 1011.8
20260906113018 76 153 0.0 0.0 0.00 0.00 0.00 89 1011.6
20260906111554 76 153 0.0 0.0 0.00 0.00 0.00 89 1011.3
20260906110035 76 153 0.0 0.0 0.00 0.00 0.00 89 1011.3
20260906104518 77 153 0.0 0.0 0.00 0.00 0.00 89 1011.3
20260906103100 77 153 0.0 0.0 0.00 0.00 0.00 89 1011.2
20260906103002 77 153 0.0 0.0 0.00 0.00 0.00 89 1011.1
20260906101540 77 153 0.0 0.0 0.00 0.00 0.00 89 1011.2
20260906100027 78 153 0.0 0.0 0.00 0.00 0.00 89 1010.9
20260906094559 78 153 0.0 0.0 0.00 0.00 0.00 89 1010.9
20260906094505 78 153 0.0 0.0 0.00 0.00 0.00 89 1010.9
20260906093053 78 153 0.0 0.0 0.00 0.00 0.00 88 1010.8
20260906091534 78 153 0.0 0.0 0.00 0.00 0.00 87 1010.7
20260906090011 78 153 0.0 0.0 0.00 0.00 0.00 86 1010.7
20260906084554 79 153 0.0 0.0 0.00 0.00 0.00 85 1010.5
20260906083035 79 153 0.0 0.0 0.00 0.00 0.00 85 1010.6
20260906081525 79 153 0.0 0.0 0.00 0.00 0.00 85 1010.5
20260906080053 79 113 0.0 0.0 0.00 0.00 0.00 85 1010.6
20260906074537 79 113 0.0 0.0 0.00 0.00 0.00 84 1010.5
20260906073015 79 113 0.0 0.0 0.00 0.00 0.00 84 1010.6
20260906071553 79 113 0.0 0.0 0.00 0.00 0.00 83 1010.7
20260906070035 79 113 0.0 0.0 0.00 0.00 0.00 84 1010.7
20260906064511 79 113 0.0 0.0 0.00 0.00 0.00 83 1010.8
20260906063053 80 113 0.0 0.0 0.00 0.00 0.00 83 1010.9
20260906061533 80 113 0.0 0.0 0.00 0.00 0.00 82 1010.8
20260906060015 81 113 0.0 0.0 0.00 0.00 0.00 81 1010.8
20260906054558 81 113 0.0 0.0 0.00 0.00 0.00 79 1010.8
20260906053037 82 113 0.0 0.0 0.00 0.00 0.00 78 1010.8
20260906051519 82 113 0.0 0.0 0.00 0.00 0.00 78 1010.9
20260906050053 83 113 0.0 0.0 0.00 0.00 0.00 77 1010.9
20260906044531 84 113 0.0 0.0 0.00 0.00 0.00 73 1010.7
20260906043022 85 113 0.0 0.0 0.00 0.00 0.00 73 1010.3
20260906041551 85 113 0.0 0.0 0.00 0.00 0.00 73 1010.3
20260906040039 85 113 0.0 0.0 0.00 0.00 0.00 72 1010.4
20260906034527 85 113 0.0 0.0 0.00 0.00 0.00 72 1010.7
20260906033007 86 113 0.0 0.0 0.00 0.00 0.00 70 1010.8
20260906031546 86 113 0.0 0.0 0.00 0.00 0.00 69 1011.0
20260906030023 86 113 0.0 0.0 0.00 0.00 0.00 69 1011.0
20260906024508 87 113 0.0 0.0 0.00 0.00 0.00 68 1011.0
20260906023050 87 113 0.0 0.0 0.00 0.00 0.00 67 1010.9
20260906021542 88 113 0.0 0.0 0.00 0.00 0.00 64 1010.6
20260906020019 88 98 0.0 0.0 0.00 0.00 0.00 63 1010.4
20260906014606 86 275 0.0 2.0 0.00 0.00 0.00 66 1010.2
20260906014503 86 275 0.0 2.0 0.00 0.00 0.00 66 1010.3
20260906013052 86 275 0.0 1.0 0.00 0.00 0.00 67 1010.1
20260906011532 87 275 0.0 0.0 0.00 0.00 0.00 66 1009.8
20260906010018 88 275 0.0 0.0 0.00 0.00 0.00 64 1009.7
20260906004558 89 275 0.0 1.0 0.00 0.00 0.00 64 1009.6
20260906004500 89 275 0.0 1.0 0.00 0.00 0.00 64 1009.6
20260906003040 90 94 0.0 0.0 0.00 0.00 0.00 60 1009.5
20260906001525 91 135 0.0 1.0 0.00 0.00 0.00 57 1009.7
20260906000007 93 130 0.0 2.0 0.00 0.00 0.00 54 1009.6
20260905234547 95 85 0.0 2.0 0.00 0.00 0.00 50 1009.6
20260905233022 95 110 1.0 3.0 0.00 0.00 0.00 49 1009.5
20260905231511 96 75 0.0 2.0 0.00 0.00 0.00 51 1009.6
20260905230048 96 84 0.0 3.0 0.00 0.00 0.00 49 1009.6
20260905224532 97 123 1.0 4.0 0.00 0.00 0.00 48 1009.4
20260905223010 97 88 1.0 4.0 0.00 0.00 0.00 45 1009.5
20260905221551 97 96 1.0 6.0 0.00 0.00 0.00 47 1009.4
20260905220030 97 90 1.0 6.0 0.00 0.00 0.00 45 1009.6
20260905214506 98 40 1.0 4.0 0.00 0.00 0.00 46 1009.6
20260905213049 98 94 2.0 4.0 0.00 0.00 0.00 45 1009.6
20260905211535 99 91 0.0 3.0 0.00 0.00 0.00 45 1009.8
20260905210015 99 247 0.0 3.0 0.00 0.00 0.00 43 1010.0
20260905204558 99 146 0.0 3.0 0.00 0.00 0.00 45 1010.4
20260905204506 99 146 0.0 3.0 0.00 0.00 0.00 46 1010.3
20260905203042 99 122 0.0 3.0 0.00 0.00 0.00 43 1010.6
20260905201522 99 119 0.0 3.0 0.00 0.00 0.00 47 1010.9
20260905200004 99 283 0.0 4.0 0.00 0.00 0.00 44 1010.9
20260905194546 98 76 2.0 4.0 0.00 0.00 0.00 48 1011.1
20260905193027 98 46 1.0 5.0 0.00 0.00 0.00 44 1011.4
20260905191511 98 112 0.0 3.0 0.00 0.00 0.00 42 1011.5
20260905190058 98 82 2.0 6.0 0.00 0.00 0.00 44 1011.7